This is the latest recevied weather packets stored in our database for station/object VK5GR-12. If no packets are shown the sender has not sent any weather packets the latest 10 day(s).
| Time | Temp. | Humidity | Pressure | Rain* | Wind** | Luminosity | Snow |
|---|---|---|---|---|---|---|---|
| 1788316989 | 14.44° C | 71% | 1016.2 hPa | 0 mm | - | 193 W/m² | - |
| 1788316085 | 13.89° C | 69% | 1016.2 hPa | 0 mm | - | 283 W/m² | - |
| 1788315182 | 15° C | 69% | 1016.5 hPa | 0 mm | - | 267 W/m² | - |
| 1788314281 | 15° C | 67% | 1016.7 hPa | 0 mm | - | 276 W/m² | - |
| 1788313382 | 14.44° C | 68% | 1016.8 hPa | 0 mm | - | 281 W/m² | - |
| 1788312477 | 13.89° C | 70% | 1017.1 hPa | 0 mm | - | 292 W/m² | - |
| 1788311574 | 13.89° C | 72% | 1017.3 hPa | 0 mm | - | 354 W/m² | - |
| 1788310673 | 13.89° C | 72% | 1017.2 hPa | 0 mm | - | 480 W/m² | - |
| 1788309770 | 15° C | 69% | 1017.5 hPa | 0 mm | - | 167 W/m² | - |
| 1788308868 | 13.89° C | 70% | 1017.6 hPa | 0 mm | - | 225 W/m² | - |
| 1788307963 | 14.44° C | 71% | 1017.6 hPa | 0 mm | - | 521 W/m² | - |
| 1788307058 | 14.44° C | 69% | 1017.6 hPa | 0 mm | - | 429 W/m² | - |
| 1788306153 | 13.89° C | 75% | 1017.6 hPa | 0 mm | - | 356 W/m² | - |
| 1788305250 | 13.33° C | 80% | 1017.7 hPa | 0 mm | - | 289 W/m² | - |
| 1788304350 | 12.78° C | 79% | 1017.8 hPa | 0 mm | - | 93 W/m² | - |
| 1788303446 | 12.78° C | 80% | 1017.9 hPa | 0 mm | - | 106 W/m² | - |
| 1788302544 | 12.22° C | 80% | 1017.7 hPa | 0 mm | - | 80 W/m² | - |
| 1788301642 | 12.22° C | 84% | 1017.7 hPa | 0 mm | - | 80 W/m² | - |
| 1788300741 | 11.67° C | 87% | 1017.6 hPa | 0 mm | - | 61 W/m² | - |
| 1788299839 | 11.67° C | 89% | 1017.4 hPa | 0 mm | - | 49 W/m² | - |
| 1788298938 | 11.67° C | 92% | 1017.4 hPa | 0 mm | - | 27 W/m² | - |
| 1788298038 | 11.11° C | 94% | 1017.2 hPa | 0 mm | - | 16 W/m² | - |
| 1788297136 | 11.11° C | 96% | 1017.2 hPa | 0 mm | - | 6 W/m² | - |
| 1788296234 | 11.11° C | 96% | 1016.9 hPa | 0 mm | - | 1 W/m² | - |
| 1788295331 | 11.67° C | 96% | 1016.8 hPa | 0 mm | - | 0 W/m² | - |
* Rain latest hour (hover to see other rain measurements)
** Current wind speed in m/s (hover to see current wind gust speed)